Regional Weather Roundup
Issued by NWS

Home | Current Version | Previous Version | Text Only | Print | Product List | Glossary Off
Versions: 1 2 3 4 5 6 7 8 9 10 11 12 13 14 15 16 17 18 19 20 21 22 23 24 25 26 27 28 29 30 31 32 33 34 35 36 37 38 39 40 41 42 43 44 45 46 47 48 49 50

000
ASUS43 KOAX 040302
RWRNE

WEATHER ROUNDUP FOR NEBRASKA
NATIONAL WEATHER SERVICE OMAHA NE
900 PM CST TUE MAR 03 2015

NOTES: SATELLITE DATA IS BEING USED TO AUGMENT CLOUD COVER ABOVE
       12000 FEET.
       "FAIR" INDICATES FEW OR NO CLOUDS BELOW 12,000 FEET WITH NO
       SIGNIFICANT WEATHER AND/OR OBSTRUCTIONS TO VISIBILITY.

  * THESE STATIONS DO NOT REPORT WEATHER SUCH AS RAIN...SNOW OR FOG.

NEZ001>004-019>022-054>056-040400-
NEBRASKA PANHANDLE

CITY           SKY/WX    TMP DP  RH WIND       PRES   REMARKS
SCOTTSBLUFF    CLOUDY    17   9  70 NW13      30.00R WCI   4
ALLIANCE       LGT SNOW  16  11  80 NW10      29.98R WCI   4
CHADRON        CLOUDY    15   5  64 W10       30.03R WCI   2
SIDNEY         LGT SNOW  15  11  83 N12       29.97R VSB 1   WCI   2
$$

NEZ057>060-069>072-079>082-040400-
SOUTHWEST NEBRASKA

CITY           SKY/WX    TMP DP  RH WIND       PRES   REMARKS
NORTH PLATTE   CLOUDY    20   3  48 N9        30.05R WCI   9
IMPERIAL         N/A     21   8  57 NE12      30.02R WCI   9
MCCOOK         CLOUDY    26   5  40 N13       30.04R WCI  15
$$

NEZ005>010-023>029-035>040-094-040400-
NORTH CENTRAL NEBRASKA

CITY           SKY/WX    TMP DP  RH WIND       PRES   REMARKS
VALENTINE      MOCLDY    13   4  67 W6        30.06R WCI   4
BROKEN BOW     CLOUDY    19   5  54 N10       30.03R WCI   7
ORD            MOCLDY    18   2  49 N7        30.06R WCI   9
$$

NEZ041-046>049-061>064-073>077-083>087-040400-
SOUTH CENTRAL NEBRASKA

CITY           SKY/WX    TMP DP  RH WIND       PRES   REMARKS
GRAND ISLAND   PTCLDY    20   4  50 N12       30.09R WCI   8
HASTINGS       MOCLDY    21   4  47 N15G23    30.05R WCI   8
KEARNEY *      MOCLDY    19   3  49 N14       30.05R WCI   6
$$

NEZ011>018-030>034-042>045-040400-
NORTHEAST NEBRASKA

CITY           SKY/WX    TMP DP  RH WIND       PRES   REMARKS
NORFOLK        CLEAR     17   4  56 N10       30.07R WCI   5
BLAIR          PTCLDY    19   8  60 N12       30.07R WCI   7
COLUMBUS *     CLEAR     18   0  45 N10       30.09R WCI   6
TEKAMAH        CLEAR     19   7  59 N12       30.11R WCI   7
$$

NEZ050>053-065>068-078-088>093-040400-
SOUTHEAST NEBRASKA

CITY           SKY/WX    TMP DP  RH WIND       PRES   REMARKS
LINCOLN        CLEAR     20   6  55 N13       30.09R WCI   7
OMAHA EPPLEY   PTCLDY    20   7  57 N18G25    30.10R WCI   5
FALLS CITY     CLOUDY    29  13  51 N13       30.04R WCI  19
$$

NEZ044-045-051>053-067-040400-
OMAHA AREA

CITY           SKY/WX    TMP DP  RH WIND       PRES   REMARKS
OMAHA EPPLEY   PTCLDY    20   7  57 N18G25    30.10R WCI   5
BLAIR          PTCLDY    19   8  60 N12       30.07R WCI   7
OFFUTT AFB     CLEAR     21   8  56 N10       30.08R WCI  10
$$



USA.gov is the U.S. government's official web portal to all federal, state and local government web resources and services.